{"data":{"norad_id":44949,"epoch":"2026-09-19T23:39:12.441024Z","epoch_age_seconds":58636,"freshness":"FRESH","line1":"1 44949U 20001AM  26262.98556066  .00021328  00000+0  20549-3 0  9994","line2":"2 44949  53.1460 107.2762 0002687  91.2578 268.8747 15.66501672370394","mean_motion":15.66501672,"eccentricity":0.0002687,"inclination_deg":53.146,"raan_deg":107.2762,"arg_perigee_deg":91.2578,"mean_anomaly_deg":268.8747,"bstar":0.00020549,"rev_number":37039,"period_min":91.924574722063,"perigee_km":367.11048793953,"apogee_km":370.73635821089,"semimajor_km":6747.0604230752,"source":"CELESTRAK","updated_at":"2026-09-20T09:00:38.221609Z"}}